THORAD AGENA D DEB, 5151

Orbit data source: Space-Track

THORAD AGENA D DEB, 5151 is space debris in SSO originally from a launch on Wed, 08 Apr 1970 UTC launched from the Air Force Western Test Range (AFWTR). Debris objects in space refer to the collection of defunct objects orbiting the Earth. Examples of debris include non-operational satellites, rocket bodies, and fragments generated from explosions, collisions, or faulty payload assembly.

Loading next visibility...
Identifier
5151, 1970-025JU
Orbit
SSO
Country
Flag of USUS
Related business
Manufacturer
Unknown
Mission
Spacecraft
Bus & Motor
Unknown
Mass
Unknown
Launch date (UTC)
1970-04-08 (56 years ago)
Launch vehicle
Unknown
Launch site
Air Force Western Test Range (AFWTR)
Object type
Payload
Rocket body
Debris
Shape & HBR
Unknown shape, 0.1 m
Radar Cross Section
Small (<0.1 m²)

Expand to show TLE details & history
Last TLE update: 22 hours ago

TLE from 22 hours ago
0 THORAD AGENA D DEB
1 05151U 70025JU  25351.17442751  .00000447  00000-0  60975-3 0  9998
2 05151 100.0914 209.8743 0001732 304.8992 183.6144 13.65225258258944
Epoch: 2025-12-17T04:11Z
TLE epoch observation values (Epoch: 2025-12-17T04:11:10.536Z)
Latitude
50.48541°
Longitude
-106.57147°
Altitude
1,026.004 km
Speed
7.343 km/s
True Right ascension
02h 49m 04s
True Declination
50° 19' 21"
Sunlit
Object was in full shadow at epoch
Visualization orbit readout
Latitude
Unknown
Longitude
Unknown
Altitude
Unknown
Speed
Unknown
Apparent Right ascension
Unknown
Apparent Declination
Unknown
Sunlit
N/A
Visualization observer readout
Local Sidereal Time
01:09:21
Azimuth
Unknown
Elevation
Unknown
Doppler factor
Unknown
Orbital elements
Apogee altitude
1,015.345 km
Perigee altitude
1,012.784 km
Semi-major axis
7,392.202 km
Eccentricity
0.00017
Inclination
100.0914°
RAAN
209.8743°
Arg. of periapsis
304.8992°
True anomaly
183.61315°
Mean anomaly
183.6144°
Eccentric anomaly
183.61377°
Mean motion
3.41494 °/min
Orbital period
105.42 mins
BSTAR
0.00060975

Documentation

Showing up to 5 results
|